• In Netherlands
  • List of Countries
  • For 7 days
  • Water Temperature
  • Satellite Maps
  • Weather Map
  • Weather Widgets
  • user-avatar
    Login

    Hourly Weather Santiago del Estero

    Today, 19 February, Sunday

    Time Temperature Precipitation Wind Pressure Humidity
    00:00 +28°C° 2.6 mm 3 mps 742 mmHg 79%
    01:00 +28°C° 2.6 mm 3 mps 742 mmHg 84%
    02:00 +27°C° 0 mm 3 mps 742 mmHg 88%
    03:00 +26°C° 3.4 mm 3 mps 742 mmHg 89%
    04:00 +26°C° 3.4 mm 2 mps 742 mmHg 90%
    05:00 +26°C° 3.4 mm 2 mps 742 mmHg 91%
    06:00 +26°C° 0.8 mm 2 mps 742 mmHg 92%
    07:00 +26°C° 0.8 mm 2 mps 743 mmHg 92%
    08:00 +26°C° 0.8 mm 2 mps 743 mmHg 92%
    09:00 +27°C° 0.2 mm 2 mps 743 mmHg 86%
    10:00 +28°C° 0.2 mm 2 mps 743 mmHg 81%
    11:00 +30°C° 0.2 mm 2 mps 743 mmHg 75%
    12:00 +31°C° 0 mm 2 mps 743 mmHg 69%
    13:00 +33°C° 0 mm 3 mps 742 mmHg 63%
    14:00 +34°C° 0 mm 3 mps 741 mmHg 57%
    15:00 +34°C° 0 mm 3 mps 741 mmHg 56%
    16:00 +35°C° 0 mm 4 mps 740 mmHg 56%
    17:00 +35°C° 0 mm 4 mps 740 mmHg 55%
    18:00 +34°C° 0.3 mm 4 mps 740 mmHg 61%
    19:00 +31°C° 0.3 mm 3 mps 740 mmHg 66%
    20:00 +30°C° 0.3 mm 3 mps 741 mmHg 72%
    21:00 +29°C° 2.4 mm 3 mps 741 mmHg 76%
    22:00 +29°C° 2.4 mm 3 mps 742 mmHg 80%
    23:00 +28°C° 2.4 mm 2 mps 742 mmHg 84%

    Tomorrow, 20 February, Monday

    Time Temperature Precipitation Wind Pressure Humidity
    00:00 +28°C° 0.7 mm 2 mps 742 mmHg 84%
    01:00 +28°C° 0.7 mm 2 mps 742 mmHg 84%
    02:00 +28°C° 0.7 mm 2 mps 742 mmHg 85%
    03:00 +27°C° 0 mm 2 mps 742 mmHg 85%
    04:00 +27°C° 0 mm 2 mps 742 mmHg 86%
    05:00 +27°C° 0 mm 3 mps 742 mmHg 87%
    06:00 +28°C° 0 mm 3 mps 742 mmHg 84%
    07:00 +28°C° 0 mm 3 mps 743 mmHg 80%
    08:00 +29°C° 0 mm 3 mps 743 mmHg 77%
    09:00 +32°C° 0 mm 4 mps 743 mmHg 67%
    10:00 +34°C° 0 mm 4 mps 743 mmHg 57%
    11:00 +37°C° 0 mm 4 mps 743 mmHg 47%
    12:00 +38°C° 0 mm 4 mps 743 mmHg 43%
    13:00 +40°C° 0 mm 5 mps 742 mmHg 40%
    14:00 +41°C° 0 mm 5 mps 742 mmHg 36%
    15:00 +40°C° 0 mm 5 mps 741 mmHg 38%
    16:00 +40°C° 0 mm 5 mps 741 mmHg 40%
    17:00 +38°C° 0 mm 4 mps 740 mmHg 42%
    18:00 +36°C° 1 mm 4 mps 740 mmHg 50%
    19:00 +34°C° 1 mm 4 mps 741 mmHg 59%
    20:00 +31°C° 1 mm 3 mps 741 mmHg 68%
    21:00 +30°C° 1.5 mm 3 mps 741 mmHg 70%
    22:00 +30°C° 1.5 mm 3 mps 742 mmHg 73%
    23:00 +29°C° 1.5 mm 3 mps 742 mmHg 75%

    Day after tomorrow, 21 February, Tuesday

    Time Temperature Precipitation Wind Pressure Humidity
    00:00 +29°C° 0.7 mm 3 mps 742 mmHg 77%
    01:00 +28°C° 0.7 mm 3 mps 742 mmHg 80%
    02:00 +27°C° 0.7 mm 3 mps 741 mmHg 82%
    03:00 +27°C° 0 mm 2 mps 741 mmHg 82%
    04:00 +27°C° 0 mm 2 mps 741 mmHg 83%
    05:00 +27°C° 0 mm 2 mps 741 mmHg 83%
    06:00 +28°C° 0 mm 2 mps 742 mmHg 80%
    07:00 +29°C° 0 mm 3 mps 742 mmHg 77%
    08:00 +29°C° 0 mm 4 mps 742 mmHg 74%
    09:00 +33°C° 0 mm 4 mps 742 mmHg 62%
    10:00 +36°C° 0 mm 5 mps 742 mmHg 51%
    11:00 +39°C° 0 mm 6 mps 742 mmHg 40%
    12:00 +40°C° 0 mm 6 mps 742 mmHg 38%
    13:00 +41°C° 0 mm 6 mps 741 mmHg 35%
    14:00 +42°C° 0 mm 6 mps 740 mmHg 33%
    15:00 +42°C° 0 mm 6 mps 740 mmHg 33%
    16:00 +41°C° 0 mm 5 mps 740 mmHg 34%
    17:00 +41°C° 0 mm 5 mps 739 mmHg 34%
    18:00 +38°C° 0 mm 4 mps 739 mmHg 38%
    19:00 +37°C° 0 mm 4 mps 740 mmHg 42%
    20:00 +35°C° 0 mm 3 mps 740 mmHg 46%
    21:00 +33°C° 0.6 mm 3 mps 740 mmHg 53%
    22:00 +31°C° 0.6 mm 3 mps 741 mmHg 59%
    23:00 +30°C° 0.6 mm 3 mps 741 mmHg 66%

    22 February, Wednesday

    Time Temperature Precipitation Wind Pressure Humidity
    00:00 +29°C° 0.6 mm 2 mps 741 mmHg 70%
    01:00 +28°C° 0.6 mm 1 mps 741 mmHg 73%
    02:00 +28°C° 0.6 mm 1 mps 740 mmHg 77%
    03:00 +28°C° 0 mm 1 mps 740 mmHg 78%
    04:00 +27°C° 0 mm 1 mps 740 mmHg 78%
    05:00 +27°C° 0 mm 2 mps 740 mmHg 79%
    06:00 +28°C° 0 mm 2 mps 741 mmHg 76%
    07:00 +29°C° 0 mm 2 mps 741 mmHg 74%
    08:00 +29°C° 0 mm 2 mps 741 mmHg 72%
    09:00 +31°C° 0 mm 2 mps 741 mmHg 63%
    10:00 +34°C° 0 mm 2 mps 742 mmHg 55%
    11:00 +36°C° 0 mm 2 mps 742 mmHg 46%
    12:00 +38°C° 0 mm 3 mps 741 mmHg 41%
    13:00 +39°C° 0 mm 3 mps 740 mmHg 36%
    14:00 +41°C° 0 mm 4 mps 739 mmHg 31%
    15:00 +41°C° 0 mm 4 mps 739 mmHg 31%
    16:00 +40°C° 0 mm 3 mps 739 mmHg 30%
    17:00 +40°C° 0 mm 3 mps 738 mmHg 30%
    18:00 +38°C° 0 mm 3 mps 738 mmHg 34%
    19:00 +36°C° 0 mm 3 mps 739 mmHg 39%
    20:00 +34°C° 0 mm 2 mps 739 mmHg 43%
    21:00 +33°C° 0 mm 3 mps 739 mmHg 45%
    22:00 +33°C° 0 mm 3 mps 740 mmHg 47%
    23:00 +31°C° 0 mm 3 mps 740 mmHg 49%

    23 February, Thursday

    Time Temperature Precipitation Wind Pressure Humidity
    00:00 +30°C° 0 mm 3 mps 740 mmHg 50%
    01:00 +30°C° 0 mm 3 mps 739 mmHg 51%
    02:00 +29°C° 0 mm 2 mps 739 mmHg 52%
    03:00 +29°C° 0 mm 2 mps 739 mmHg 55%
    04:00 +28°C° 0 mm 1 mps 739 mmHg 57%
    05:00 +28°C° 0 mm 1 mps 739 mmHg 59%
    06:00 +29°C° 0 mm 1 mps 740 mmHg 56%
    07:00 +30°C° 0 mm 1 mps 740 mmHg 53%
    08:00 +31°C° 0 mm 1 mps 741 mmHg 50%
    09:00 +33°C° 0 mm 1 mps 741 mmHg 46%
    10:00 +34°C° 0 mm 1 mps 741 mmHg 42%
    11:00 +37°C° 0 mm 2 mps 741 mmHg 39%
    12:00 +38°C° 0 mm 2 mps 740 mmHg 36%
    13:00 +39°C° 0 mm 3 mps 740 mmHg 33%
    14:00 +40°C° 0 mm 3 mps 739 mmHg 31%
    15:00 +39°C° 0 mm 3 mps 739 mmHg 32%
    16:00 +39°C° 0 mm 3 mps 738 mmHg 34%
    17:00 +38°C° 0 mm 3 mps 738 mmHg 35%
    18:00 +37°C° 0.1 mm 3 mps 738 mmHg 40%
    19:00 +35°C° 0.1 mm 2 mps 738 mmHg 44%
    20:00 +32°C° 0.1 mm 2 mps 738 mmHg 49%
    21:00 +31°C° 0.6 mm 2 mps 739 mmHg 55%
    22:00 +30°C° 0.6 mm 2 mps 739 mmHg 61%
    23:00 +29°C° 0.6 mm 1 mps 739 mmHg 67%

    24 February, Friday

    Time Temperature Precipitation Wind Pressure Humidity
    00:00 +28°C° 0.3 mm 2 mps 739 mmHg 69%
    01:00 +28°C° 0.3 mm 2 mps 739 mmHg 70%
    02:00 +28°C° 0.3 mm 2 mps 739 mmHg 72%
    03:00 +27°C° 1.4 mm 2 mps 739 mmHg 76%
    04:00 +27°C° 1.4 mm 1 mps 739 mmHg 79%
    05:00 +27°C° 1.4 mm 1 mps 739 mmHg 83%
    06:00 +27°C° 0.1 mm 1 mps 740 mmHg 80%
    07:00 +28°C° 0.1 mm 1 mps 740 mmHg 76%
    08:00 +28°C° 0.1 mm 1 mps 741 mmHg 73%
    09:00 +30°C° 0 mm 1 mps 741 mmHg 66%
    10:00 +32°C° 0 mm 1 mps 741 mmHg 60%
    11:00 +34°C° 0 mm 1 mps 741 mmHg 53%
    12:00 +34°C° 0.3 mm 1 mps 741 mmHg 50%
    13:00 +36°C° 0.3 mm 2 mps 740 mmHg 47%
    14:00 +37°C° 0.3 mm 2 mps 740 mmHg 44%
    15:00 +37°C° 0.2 mm 3 mps 739 mmHg 45%
    16:00 +37°C° 0.2 mm 3 mps 739 mmHg 46%
    17:00 +36°C° 0.2 mm 3 mps 738 mmHg 47%
    18:00 +35°C° 0.6 mm 3 mps 739 mmHg 52%
    19:00 +32°C° 0.6 mm 2 mps 739 mmHg 57%
    20:00 +31°C° 0.6 mm 2 mps 739 mmHg 62%
    21:00 +30°C° 0.9 mm 2 mps 739 mmHg 68%
    22:00 +29°C° 0.9 mm 2 mps 739 mmHg 73%
    23:00 +28°C° 0.9 mm 1 mps 739 mmHg 79%
    Show more